Home > Weather > Schwechat > Past weeks

Flag for Austria Past Weather in Schwechat, Lower Austria, Austria — Yesterday and Last 2 Weeks

Now
82 °F

Sunny.


Feels Like: 82 °F
Forecast: 65 / 83 °F
Wind: 14 mph from Southeast

Location: Vienna Schwechat-Flughafen Airport

Current Time: Aug 28, 2016 at 6:40:42 PM

Latest Report: Aug 28, 2016 at 5:50 PM


Visibility: 10 mi

Pressure: 30.01 "Hg

Humidity: 45%

Dew Point: 59 °F

Location of SchwechatLocation

Past Weather in Schwechat — Graph

°F

Schwechat Temperature Yesterday

Maximum temperature yesterday: 84 °F (at 2:50 PM)
Minimum temperature yesterday: 61 °F (at 12:20 AM)
Average temperature yesterday: 73 °F

High & Low Weather Summary for the Past Weeks

 TemperatureHumidityPressure
High86 °F (Aug 28, 3:20 PM)100% (Aug 14, 2:50 AM)30.36 "Hg (Aug 14, 2:50 AM)
Low52 °F (Aug 18, 6:20 AM)39% (Aug 25, 4:20 PM)29.83 "Hg (Aug 18, 2:50 PM)
Average68 °F70%30.10 "Hg
* Reported Aug 13 5:20 PM — Aug 28 5:20 PM, Schwechat, Weather by CustomWeather, © 2016

Note: Actual official high and low records may vary slightly from our data, if they occured in-between our weather recording intervals... More about our weather records

Advertising

Schwechat Weather History for the Previous 24 Hours

Scroll right to see more
 ConditionsComfort  
Time TempWeatherWind HumidityBarometerVisibility
5:20 PM
Sun, Aug 28
84 °FSunny.13 mph43%30.01 "Hg10 mi
4:50 PM84 °FSunny.13 mph40%30.01 "Hg10 mi
4:20 PM84 °FSunny.14 mph43%30.04 "Hg10 mi
3:50 PM84 °FSunny.15 mph45%30.04 "Hg10 mi
3:20 PM86 °FSunny.15 mph43%30.04 "Hg10 mi
2:50 PM84 °FPassing clouds.15 mph43%30.04 "HgN/A
2:20 PM84 °FSunny.17 mph43%30.04 "Hg10 mi
1:50 PM84 °FPassing clouds.14 mph43%30.07 "HgN/A
1:20 PM84 °FSunny.15 mph43%30.07 "Hg10 mi
12:50 PM84 °FSunny.12 mph40%30.07 "Hg10 mi
12:20 PM82 °FPassing clouds.13 mph45%30.07 "HgN/A
11:50 AM82 °FPassing clouds.16 mph45%30.07 "HgN/A
11:20 AM81 °FPassing clouds.14 mph51%30.07 "HgN/A
10:50 AM79 °FSunny.15 mph58%30.09 "Hg10 mi
10:20 AM77 °FPassing clouds.12 mph61%30.07 "HgN/A
9:50 AM75 °FSunny.13 mph65%30.07 "Hg10 mi
9:20 AM73 °FSunny.12 mph69%30.07 "Hg10 mi
8:50 AM72 °FSunny.12 mph69%30.07 "Hg10 mi
8:20 AM70 °FSunny.14 mph73%30.07 "Hg10 mi
7:50 AM68 °FPassing clouds.12 mph78%30.07 "HgN/A
7:20 AM66 °FPassing clouds.7 mph83%30.07 "HgN/A
6:50 AM66 °FClear.7 mph83%30.07 "Hg10 mi
6:20 AM66 °FClear.12 mph83%30.07 "Hg10 mi
5:50 AM64 °FPassing clouds.8 mph83%30.07 "HgN/A
5:20 AM64 °FClear.7 mph83%30.07 "Hg10 mi
4:50 AM64 °FClear.8 mph83%30.07 "Hg10 mi
4:20 AM66 °FClear.8 mph83%30.07 "Hg10 mi
3:50 AM66 °FClear.12 mph83%30.07 "Hg10 mi
3:20 AM68 °FClear.12 mph78%30.07 "Hg10 mi
2:50 AM68 °FClear.9 mph78%30.07 "Hg10 mi
2:20 AM68 °FClear.9 mph78%30.07 "Hg10 mi
1:50 AM70 °FClear.10 mph73%30.09 "Hg10 mi
1:20 AM70 °FClear.10 mph73%30.09 "Hg10 mi
12:50 AM70 °FClear.10 mph73%30.09 "Hg10 mi
12:20 AM72 °FClear.9 mph69%30.09 "Hg10 mi
11:50 PM
Sat, Aug 27
72 °FClear.10 mph69%30.09 "Hg10 mi
11:20 PM72 °FClear.9 mph69%30.09 "Hg10 mi
10:50 PM72 °FClear.10 mph69%30.09 "Hg10 mi
10:20 PM73 °FClear.9 mph65%30.09 "Hg10 mi
9:50 PM73 °FClear.12 mph65%30.09 "Hg10 mi
9:20 PM73 °FClear.10 mph65%30.09 "Hg10 mi
8:50 PM73 °FClear.10 mph61%30.09 "Hg10 mi
8:20 PM75 °FSunny.8 mph57%30.09 "Hg10 mi
7:50 PM77 °FSunny.9 mph54%30.09 "Hg10 mi
7:20 PM79 °FSunny.10 mph51%30.09 "Hg10 mi
6:50 PM81 °FSunny.12 mph48%30.09 "Hg10 mi
6:20 PM81 °FSunny.14 mph48%30.09 "Hg10 mi
Weather by CustomWeather, © 2016

See weather overviewHow to use our weather pages